N7FEQ Weather Reports


time (UTC)temp
C
wind
direction
speed
KPH
gust
KPH
rain 1hr
cm
rain 24hr
cm
rain mn
cm
humidity
%
barometer
mb
20260506015305 20 0 4.8 8.0 0.00 0.00 0.00 37 1012.5
20260506014241 20 315 4.8 8.0 0.00 0.00 0.00 37 1012.6
20260506013221 20 315 3.2 8.0 0.00 0.00 0.00 36 1012.6
20260506012201 20 315 3.2 9.7 0.00 0.00 0.00 36 1012.7
20260506011145 21 312 3.2 6.4 0.00 0.00 0.00 34 1012.7
20260506010124 21 0 1.6 12.9 0.00 0.00 0.00 35 1012.6
20260506005101 22 0 0.0 0.0 0.00 0.00 0.00 33 1012.6
20260506004041 22 0 0.0 0.0 0.00 0.00 0.00 31 1012.6
20260506003029 22 0 0.0 0.0 0.00 0.00 0.00 32 1012.6
20260506002004 22 0 0.0 0.0 0.00 0.00 0.00 32 1012.6
20260506000941 21 0 0.0 0.0 0.00 0.00 0.00 33 1012.6
20260505235921 22 0 0.0 0.0 0.00 0.00 0.00 33 1012.7
20260505234901 21 0 0.0 0.0 0.00 0.00 0.00 34 1012.7
20260505232827 22 0.0 0.0 0.00 0.00 0.00 35
20260505223906 21 313 4.8 17.7 0.00 0.74 0.00 35 1013.1
20260505222844 21 197 6.4 20.9 0.00 0.74 0.00 35 1013.2
20260505221823 21 0 3.2 14.5 0.00 0.74 0.00 37 1013.3
20260505220803 21 0 1.6 4.8 0.00 0.74 0.00 37 1013.5
20260505215740 21 0 1.6 9.7 0.00 0.74 0.00 38 1013.5
20260505214722 20 0 1.6 8.0 0.00 0.74 0.00 42 1013.7
20260505212641 20 0 3.2 12.9 0.00 0.74 0.00 41 1013.8
20260505211621 19 0 6.4 17.7 0.00 0.74 0.00 45 1013.9
20260505205540 19 0 4.8 17.7 0.00 0.74 0.00 45 1014.0
20260505204526 19 0 4.8 14.5 0.00 0.74 0.00 44 1014.0
20260505203509 20 0 8.0 16.1 0.00 0.74 0.00 40 1014.1
20260505202453 21 0 4.8 16.1 0.00 0.81 0.00 43 1014.0
20260505201441 20 0 1.6 19.3 0.00 0.81 0.00 44 1014.1
20260505194421 19 0 4.8 16.1 0.00 0.84 0.00 46 1014.5
20260505193409 18 83 3.2 12.9 0.00 0.84 0.00 54 1014.4
20260505192402 16 0 4.8 14.5 0.00 0.84 0.00 56 1014.5
20260505191404 17 0 4.8 14.5 0.00 0.84 0.00 53 1014.4
20260505190402 16 0 3.2 8.0 0.00 0.84 0.00 60 1014.4
20260505185352 16 0 3.2 9.7 0.00 0.84 0.00 59 1014.5
20260505184343 15 0 4.8 12.9 0.00 0.84 0.00 62 1014.4
20260505183329 14 182 3.2 6.4 0.00 0.84 0.00 65 1014.4
20260505182311 13 183 0.0 1.6 0.00 0.84 0.00 69 1014.4
20260505181301 12 178 0.0 0.0 0.00 0.84 0.00 69 1014.4
20260505180244 12 181 0.0 0.0 0.00 0.84 0.00 71 1014.4
20260505175221 11 182 0.0 0.0 0.00 0.84 0.00 73 1014.2
20260505174159 11 184 0.0 0.0 0.00 0.84 0.00 73 1014.1
20260505173142 11 0 0.0 0.0 0.00 0.84 0.00 73 1014.0
20260505165033 10 0 0.0 0.0 0.00 0.84 0.00 78 1013.8
20260505164028 10 0 0.0 0.0 0.00 0.84 0.00 80 1013.8
20260505163029 10 0 1.6 4.8 0.00 0.84 0.00 79 1013.8
20260505162027 10 0 0.0 3.2 0.00 0.86 0.00 80 1013.7
20260505161006 9 0 3.2 9.7 0.00 0.86 0.00 81 1013.4
20260505152846 8 0 6.4 9.7 0.00 0.89 0.00 83 1013.1
20260505151826 8 0 4.8 9.7 0.00 0.89 0.00 83 1013.1
20260505150805 8 0 0.0 4.8 0.00 0.89 0.00 84 1013.1
20260505140608 7 0 6.4 12.9 0.00 0.89 0.00 83 1012.4
20260505123338 6 0 12.9 19.3 0.00 0.89 0.00 83 1011.6
20260505121316 6 0 12.9 17.7 0.00 0.89 0.00 83 1011.7
20260505120302 6 0 12.9 20.9 0.00 0.89 0.00 83 1011.7
20260505115249 6 0 12.9 19.3 0.00 0.89 0.00 83 1011.6
20260505114251 6 0 11.3 20.9 0.00 0.89 0.00 83 1011.6
20260505113239 6 0 8.0 12.9 0.00 0.89 0.00 84 1011.6
20260505112235 6 0 8.0 14.5 0.00 0.89 0.00 84 1011.6
20260505111227 6 0 11.3 17.7 0.00 0.89 0.00 84 1011.6
20260505101109 6 0 4.8 8.0 0.00 0.89 0.00 85 1011.9
20260505100055 6 0 8.0 12.9 0.00 0.89 0.00 84 1011.9
20260505095028 6 0 8.0 14.5 0.00 0.89 0.00 84 1011.9
20260505094009 6 0 9.7 17.7 0.00 0.89 0.00 85 1012.0
20260505092959 6 0 11.3 19.3 0.00 0.89 0.00 84 1011.9
20260505091946 6 0 6.4 14.5 0.00 0.89 0.00 84 1012.0
20260505090918 6 0 9.7 19.3 0.00 0.89 0.00 85 1012.1
20260505084836 6 0 8.0 16.1 0.00 0.89 0.00 84 1012.0
20260505083820 6 0 9.7 16.1 0.00 0.89 0.00 85 1012.1
20260505082756 6 0 4.8 9.7 0.00 0.89 0.00 86 1012.4
20260505081739 6 0 6.4 14.5 0.00 0.89 0.00 85 1012.4
20260505075659 6 0 8.0 16.1 0.00 0.89 0.00 84 1012.6
20260505074639 6 0 11.3 20.9 0.00 0.89 0.00 85 1012.7
20260505073616 6 0 4.8 12.9 0.00 0.89 0.00 88 1012.7
20260505072556 6 0 3.2 8.0 0.00 0.89 0.00 86 1013.0
20260505071539 6 314 1.6 6.4 0.00 0.89 0.00 85 1012.8
20260505070518 6 319 3.2 6.4 0.00 0.89 0.00 84 1012.5
20260505064446 6 0 16.1 25.7 0.00 0.89 0.89 82 1012.4
20260505062411 6 0 11.3 22.5 0.00 0.89 0.89 81 1011.3
20260505061351 7 0 11.3 25.7 0.00 0.89 0.89 81 1011.4
20260505060330 7 288 12.9 24.1 0.00 0.89 0.89 82 1011.4
20260505055316 6 0 14.5 25.7 0.00 0.89 0.89 83 1011.4
20260505054249 6 0 16.1 27.4 0.00 0.89 0.89 83 1011.6
20260505053229 6 0 17.7 27.4 0.03 0.89 0.89 83 1011.9
20260505052209 6 0 17.7 33.8 0.03 0.89 0.89 83 1011.9
20260505051149 6 0 22.5 40.2 0.03 0.89 0.89 83 1012.3
20260505050132 6 0 24.1 37.0 0.03 0.89 0.89 83 1012.4
20260505040955 6 0 17.7 27.4 0.10 0.86 0.86 86 1011.7
20260505035935 6 0 16.1 29.0 0.10 0.84 0.84 85 1011.9
20260505034916 6 0 24.1 37.0 0.08 0.81 0.81 84 1012.3
20260505033855 6 0 25.7 37.0 0.08 0.81 0.81 84 1012.0
20260505032838 6 0 20.9 38.6 0.08 0.81 0.81 84 1011.8
20260505031816 6 0 27.4 40.2 0.05 0.79 0.79 84 1011.7
20260505025734 6 0 24.1 35.4 0.03 0.74 0.74 83 1011.9
20260505023657 6 0 24.1 40.2 0.10 0.74 0.74 82 1012.0
20260505021619 6 0 22.5 40.2 0.36 0.74 0.74 87 1011.4
20260505020557 6 0 27.4 43.5 0.38 0.74 0.74 85 1011.4